| time (UTC) | temp C | wind direction | speed KPH | gust KPH | rain 1hr cm | rain 24hr cm | rain mn cm | humidity % | barometer mb |
| 20260502190522 | 13 | 66 | 0.0 | 8.0 | 0.00 | 0.08 | 0.08 | 84 | 1013.1 |
| 20260502190041 | 13 | 0 | 0.0 | 6.4 | 0.03 | 0.08 | 0.08 | 83 | 1013.3 |
| 20260502185520 | 12 | 0 | 1.6 | 12.9 | 0.03 | 0.08 | 0.08 | 83 | 1013.3 |
| 20260502185021 | 12 | 0 | 0.0 | 12.9 | 0.03 | 0.08 | 0.08 | 84 | 1013.4 |
| 20260502184549 | 12 | 0 | 0.0 | 9.7 | 0.03 | 0.08 | 0.08 | 85 | 1013.2 |
| 20260502184020 | 12 | 89 | 0.0 | 12.9 | 0.03 | 0.08 | 0.08 | 87 | 1013.1 |
| 20260502183522 | 12 | 229 | 1.6 | 12.9 | 0.03 | 0.08 | 0.08 | 88 | 1013.0 |
| 20260502183052 | 12 | 103 | 1.6 | 12.9 | 0.03 | 0.08 | 0.08 | 89 | 1012.9 |
| 20260502182521 | 12 | 0 | 1.6 | 16.1 | 0.03 | 0.08 | 0.08 | 90 | 1013.0 |
| 20260502182023 | 12 | 0 | 0.0 | 16.1 | 0.03 | 0.08 | 0.08 | 91 | 1013.1 |
| 20260502181543 | 12 | 0 | 0.0 | 8.0 | 0.03 | 0.08 | 0.08 | 91 | 1013.2 |
| 20260502181020 | 12 | 0 | 0.0 | 8.0 | 0.03 | 0.08 | 0.08 | 92 | 1013.2 |
| 20260502180520 | 12 | 92 | 0.0 | 9.7 | 0.03 | 0.08 | 0.08 | 92 | 1013.1 |
| 20260502170519 | 12 | 0 | 1.6 | 12.9 | 0.00 | 0.05 | 0.05 | 94 | 1013.4 |
| 20260502164021 | 12 | 0 | 1.6 | 6.4 | 0.00 | 0.08 | 0.05 | 94 | 1013.0 |
| 20260502163522 | 12 | 0 | 1.6 | 6.4 | 0.00 | 0.08 | 0.05 | 94 | 1013.3 |
| 20260502163042 | 13 | 107 | 0.0 | 11.3 | 0.00 | 0.08 | 0.05 | 95 | 1013.1 |
| 20260502162520 | 13 | 0 | 0.0 | 14.5 | 0.00 | 0.08 | 0.05 | 94 | 1013.0 |
| 20260502162022 | 13 | 0 | 1.6 | 14.5 | 0.00 | 0.08 | 0.05 | 94 | 1013.0 |
| 20260502161541 | 13 | 109 | 0.0 | 11.3 | 0.00 | 0.08 | 0.05 | 95 | 1013.0 |
| 20260502161021 | 13 | 32 | 0.0 | 8.0 | 0.00 | 0.08 | 0.05 | 95 | 1013.0 |
| 20260502160521 | 13 | 0 | 0.0 | 8.0 | 0.00 | 0.08 | 0.05 | 95 | 1013.0 |
| 20260502152020 | 15 | 0 | 0.0 | 4.8 | 0.00 | 0.08 | 0.05 | 95 | 1012.8 |
| 20260502151543 | 15 | 0 | 0.0 | 8.0 | 0.00 | 0.08 | 0.05 | 95 | 1012.8 |
| 20260502151020 | 15 | 5 | 0.0 | 8.0 | 0.00 | 0.08 | 0.05 | 96 | 1012.5 |
| 20260502150522 | 15 | 0 | 1.6 | 8.0 | 0.00 | 0.08 | 0.05 | 95 | 1012.5 |
| 20260502130521 | 13 | 0 | 0.0 | 0.0 | 0.03 | 0.10 | 0.05 | 94 | 1013.0 |
| 20260502123519 | 13 | 0 | 0.0 | 0.0 | 0.00 | 0.08 | 0.03 | 94 | 1013.2 |
| 20260502123041 | 13 | 0 | 0.0 | 0.0 | 0.00 | 0.08 | 0.03 | 94 | 1013.1 |
| 20260502122522 | 13 | 0 | 0.0 | 0.0 | 0.00 | 0.08 | 0.03 | 94 | 1012.8 |
| 20260502122055 | 13 | 0 | 0.0 | 0.0 | 0.00 | 0.08 | 0.03 | 94 | 1012.6 |
| 20260502121536 | 13 | 0 | 0.0 | 0.0 | 0.00 | 0.08 | 0.03 | 94 | 1012.3 |
| 20260502121021 | 13 | 0 | 0.0 | 0.0 | 0.00 | 0.08 | 0.03 | 94 | 1012.3 |
| 20260502120519 | 13 | 0 | 0.0 | 0.0 | 0.00 | 0.08 | 0.03 | 93 | 1012.2 |
| 20260502115521 | 13 | 0 | 0.0 | 0.0 | 0.00 | 0.08 | 0.03 | 93 | 1012.3 |
| 20260502115022 | 13 | 0 | 0.0 | 0.0 | 0.00 | 0.08 | 0.03 | 93 | 1012.0 |
| 20260502114532 | 13 | 0 | 0.0 | 0.0 | 0.00 | 0.08 | 0.03 | 93 | 1012.1 |
| 20260502114020 | 13 | 0 | 0.0 | 0.0 | 0.00 | 0.08 | 0.03 | 93 | 1012.0 |
| 20260502113520 | 13 | 0 | 0.0 | 0.0 | 0.00 | 0.08 | 0.03 | 93 | 1012.0 |
| 20260502113041 | 13 | 0 | 0.0 | 0.0 | 0.00 | 0.08 | 0.03 | 93 | 1011.9 |
| 20260502112523 | 13 | 0 | 0.0 | 0.0 | 0.00 | 0.08 | 0.03 | 93 | 1011.8 |
| 20260502112025 | 13 | 0 | 0.0 | 0.0 | 0.00 | 0.08 | 0.03 | 93 | 1011.6 |
| 20260502111537 | 13 | 0 | 0.0 | 0.0 | 0.00 | 0.08 | 0.03 | 93 | 1011.3 |
| 20260502111022 | 13 | 0 | 0.0 | 0.0 | 0.00 | 0.08 | 0.03 | 93 | 1011.2 |
| 20260502110519 | 13 | 0 | 0.0 | 0.0 | 0.00 | 0.08 | 0.03 | 93 | 1011.0 |
| 20260502110038 | 13 | 0 | 0.0 | 0.0 | 0.00 | 0.08 | 0.03 | 93 | 1010.9 |
| 20260502105522 | 13 | 0 | 0.0 | 0.0 | 0.00 | 0.10 | 0.03 | 93 | 1010.8 |
| 20260502105021 | 13 | 0 | 0.0 | 0.0 | 0.00 | 0.10 | 0.03 | 92 | 1011.1 |
| 20260502104543 | 13 | 0 | 0.0 | 0.0 | 0.00 | 0.10 | 0.03 | 93 | 1011.3 |
| 20260502104019 | 13 | 0 | 0.0 | 1.6 | 0.00 | 0.10 | 0.03 | 93 | 1011.4 |
| 20260502103520 | 13 | 0 | 0.0 | 1.6 | 0.00 | 0.10 | 0.03 | 92 | 1011.4 |
| 20260502103039 | 14 | 0 | 0.0 | 0.0 | 0.00 | 0.10 | 0.03 | 92 | 1011.4 |
| 20260502102520 | 14 | 0 | 0.0 | 0.0 | 0.00 | 0.10 | 0.03 | 92 | 1011.5 |
| 20260502102023 | 14 | 0 | 0.0 | 0.0 | 0.00 | 0.10 | 0.03 | 92 | 1011.7 |
| 20260502101608 | 14 | 0 | 0.0 | 0.0 | 0.00 | 0.10 | 0.03 | 92 | 1011.9 |
| 20260502101022 | 14 | 0 | 0.0 | 0.0 | 0.00 | 0.10 | 0.03 | 92 | 1011.9 |
| 20260502100520 | 14 | 0 | 0.0 | 0.0 | 0.00 | 0.10 | 0.03 | 92 | 1012.0 |
| 20260502091534 | 14 | 0 | 0.0 | 0.0 | 0.03 | 0.10 | 0.03 | 90 | 1012.5 |
| 20260502091021 | 14 | 0 | 0.0 | 0.0 | 0.03 | 0.10 | 0.03 | 90 | 1012.7 |
| 20260502090520 | 14 | 0 | 0.0 | 0.0 | 0.03 | 0.10 | 0.03 | 90 | 1012.7 |
| 20260502071535 | 15 | 0 | 0.0 | 0.0 | 0.00 | 0.10 | 0.00 | 87 | 1012.4 |
| 20260502071023 | 15 | 0 | 0.0 | 0.0 | 0.00 | 0.10 | 0.00 | 87 | 1012.3 |
| 20260502070522 | 15 | 0 | 0.0 | 0.0 | 0.00 | 0.10 | 0.00 | 87 | 1012.2 |
| 20260502070054 | 15 | 0 | 0.0 | 0.0 | 0.00 | 0.10 | 0.00 | 87 | 1012.2 |
| 20260502065521 | 15 | 0 | 0.0 | 0.0 | 0.00 | 0.13 | 0.00 | 87 | 1012.2 |
| 20260502065021 | 15 | 0 | 0.0 | 0.0 | 0.00 | 0.13 | 0.00 | 87 | 1012.2 |
| 20260502064539 | 15 | 0 | 0.0 | 0.0 | 0.00 | 0.13 | 0.00 | 87 | 1012.1 |
| 20260502064021 | 15 | 0 | 0.0 | 0.0 | 0.00 | 0.13 | 0.00 | 87 | 1012.1 |
| 20260502063522 | 15 | 0 | 0.0 | 0.0 | 0.00 | 0.13 | 0.00 | 87 | 1012.0 |
| 20260502063038 | 15 | 0 | 0.0 | 0.0 | 0.00 | 0.13 | 0.00 | 87 | 1012.1 |
| 20260502062522 | 15 | 0 | 0.0 | 0.0 | 0.00 | 0.13 | 0.00 | 87 | 1012.1 |
| 20260502062023 | 15 | 0 | 0.0 | 0.0 | 0.00 | 0.13 | 0.00 | 87 | 1012.1 |
| 20260502061536 | 15 | 0 | 0.0 | 0.0 | 0.00 | 0.13 | 0.00 | 87 | 1012.3 |
| 20260502061018 | 15 | 0 | 0.0 | 0.0 | 0.00 | 0.13 | 0.00 | 87 | 1012.3 |
| 20260502060519 | 15 | 0 | 0.0 | 0.0 | 0.00 | 0.13 | 0.00 | 87 | 1012.5 |
| 20260502060036 | 15 | 0 | 0.0 | 0.0 | 0.00 | 0.13 | 0.00 | 87 | 1012.7 |
| 20260502055521 | 15 | 0 | 0.0 | 0.0 | 0.00 | 0.13 | 0.00 | 86 | 1012.8 |
| 20260502055019 | 15 | 0 | 0.0 | 0.0 | 0.00 | 0.13 | 0.00 | 86 | 1012.8 |
| 20260502054539 | 15 | 0 | 0.0 | 0.0 | 0.00 | 0.13 | 0.00 | 86 | 1012.8 |
| 20260502054021 | 15 | 0 | 0.0 | 0.0 | 0.00 | 0.13 | 0.00 | 85 | 1012.9 |
| 20260502053518 | 15 | 0 | 0.0 | 0.0 | 0.00 | 0.13 | 0.00 | 85 | 1012.9 |
| 20260502053032 | 15 | 0 | 0.0 | 0.0 | 0.00 | 0.13 | 0.00 | 85 | 1013.0 |
| 20260502052518 | 15 | 0 | 0.0 | 0.0 | 0.00 | 0.13 | 0.00 | 85 | 1013.0 |
| 20260502052021 | 15 | 0 | 0.0 | 0.0 | 0.00 | 0.13 | 0.00 | 84 | 1012.8 |
| 20260502051553 | 15 | 0 | 0.0 | 0.0 | 0.00 | 0.13 | 0.00 | 84 | 1012.8 |
| 20260502051019 | 15 | 0 | 0.0 | 0.0 | 0.00 | 0.13 | 0.00 | 84 | 1012.8 |
| 20260502050519 | 15 | 0 | 0.0 | 0.0 | 0.00 | 0.13 | 0.00 | 84 | 1012.8 |
| 20260502050036 | 15 | 0 | 0.0 | 0.0 | 0.00 | 0.13 | 0.00 | 84 | 1012.7 |
| 20260502045520 | 15 | 0 | 0.0 | 0.0 | 0.00 | 0.13 | 0.00 | 84 | 1012.7 |
| 20260502045021 | 15 | 0 | 0.0 | 0.0 | 0.00 | 0.13 | 0.00 | 84 | 1012.8 |
| 20260502044536 | 15 | 0 | 0.0 | 0.0 | 0.00 | 0.13 | 0.00 | 84 | 1012.7 |
| 20260502044020 | 15 | 0 | 0.0 | 0.0 | 0.00 | 0.13 | 0.00 | 83 | 1012.8 |
| 20260502043519 | 15 | 0 | 0.0 | 0.0 | 0.00 | 0.13 | 0.00 | 83 | 1012.8 |
| 20260502043039 | 15 | 0 | 0.0 | 0.0 | 0.00 | 0.13 | 0.00 | 83 | 1012.8 |
| 20260502042519 | 15 | 0 | 0.0 | 0.0 | 0.00 | 0.13 | 0.00 | 83 | 1013.0 |
| 20260502042022 | 15 | 0 | 0.0 | 0.0 | 0.00 | 0.13 | 0.00 | 83 | 1013.1 |
| 20260502041536 | 15 | 0 | 0.0 | 0.0 | 0.00 | 0.13 | 0.00 | 83 | 1013.2 |
| 20260502041020 | 15 | 0 | 0.0 | 0.0 | 0.00 | 0.13 | 0.00 | 83 | 1013.2 |
| 20260502040522 | 15 | 0 | 0.0 | 0.0 | 0.00 | 0.13 | 0.00 | 83 | 1013.4 |
| 20260502040051 | 15 | 0 | 0.0 | 0.0 | 0.00 | 0.13 | 0.00 | 82 | 1013.3 |
| 20260502035521 | 15 | 0 | 0.0 | 0.0 | 0.00 | 0.15 | 0.13 | 82 | 1013.2 |
| 20260502035019 | 15 | 0 | 0.0 | 0.0 | 0.00 | 0.15 | 0.13 | 82 | 1013.3 |
| 20260502034536 | 15 | 0 | 0.0 | 0.0 | 0.00 | 0.15 | 0.13 | 82 | 1013.3 |
| 20260502034021 | 15 | 0 | 0.0 | 0.0 | 0.00 | 0.15 | 0.13 | 83 | 1013.2 |
| 20260502033521 | 15 | 0 | 0.0 | 0.0 | 0.00 | 0.15 | 0.13 | 83 | 1013.2 |
| 20260502033036 | 15 | 0 | 0.0 | 0.0 | 0.00 | 0.15 | 0.13 | 83 | 1013.2 |
| 20260502032520 | 15 | 0 | 0.0 | 0.0 | 0.00 | 0.15 | 0.13 | 83 | 1013.2 |
| 20260502032019 | 15 | 0 | 0.0 | 0.0 | 0.00 | 0.15 | 0.13 | 83 | 1013.3 |
| 20260502031532 | 15 | 0 | 0.0 | 0.0 | 0.00 | 0.15 | 0.13 | 82 | 1013.3 |
| 20260502031020 | 15 | 0 | 0.0 | 0.0 | 0.00 | 0.15 | 0.13 | 82 | 1013.4 |
| 20260502030520 | 15 | 0 | 0.0 | 0.0 | 0.00 | 0.15 | 0.13 | 82 | 1013.4 |
| 20260502030107 | 15 | 0 | 0.0 | 0.0 | 0.00 | 0.15 | 0.13 | 82 | 1013.4 |
| 20260502025519 | 15 | 0 | 0.0 | 0.0 | 0.00 | 0.15 | 0.13 | 81 | 1013.4 |
| 20260502025019 | 15 | 0 | 0.0 | 0.0 | 0.00 | 0.15 | 0.13 | 81 | 1013.3 |
| 20260502024540 | 15 | 0 | 0.0 | 0.0 | 0.00 | 0.15 | 0.13 | 81 | 1013.2 |
| 20260502024022 | 15 | 0 | 0.0 | 0.0 | 0.00 | 0.15 | 0.13 | 80 | 1013.3 |
| 20260502023521 | 15 | 0 | 0.0 | 0.0 | 0.00 | 0.15 | 0.13 | 80 | 1013.3 |
| 20260502023044 | 16 | 0 | 0.0 | 0.0 | 0.00 | 0.15 | 0.13 | 80 | 1013.2 |
| 20260502022521 | 16 | 0 | 0.0 | 0.0 | 0.00 | 0.15 | 0.13 | 80 | 1013.2 |
| 20260502022020 | 16 | 0 | 0.0 | 0.0 | 0.00 | 0.15 | 0.13 | 80 | 1013.3 |
| 20260502021536 | 16 | 0 | 0.0 | 0.0 | 0.00 | 0.15 | 0.13 | 79 | 1013.4 |
| 20260502021018 | 16 | 0 | 0.0 | 0.0 | 0.00 | 0.15 | 0.13 | 79 | 1013.3 |
| 20260502020521 | 16 | 0 | 0.0 | 0.0 | 0.00 | 0.15 | 0.13 | 79 | 1013.2 |
| 20260502020039 | 16 | 0 | 0.0 | 0.0 | 0.00 | 0.15 | 0.13 | 78 | 1013.1 |
| 20260502015521 | 16 | 0 | 0.0 | 0.0 | 0.00 | 0.15 | 0.13 | 78 | 1013.1 |
| 20260502015021 | 16 | 0 | 0.0 | 0.0 | 0.00 | 0.15 | 0.13 | 78 | 1013.3 |
| 20260502014535 | 16 | 0 | 0.0 | 0.0 | 0.00 | 0.15 | 0.13 | 78 | 1013.3 |
| 20260502014020 | 16 | 0 | 0.0 | 0.0 | 0.00 | 0.15 | 0.13 | 78 | 1013.3 |
| 20260502013520 | 16 | 0 | 0.0 | 0.0 | 0.00 | 0.15 | 0.13 | 77 | 1013.2 |
| 20260502013054 | 16 | 0 | 0.0 | 0.0 | 0.00 | 0.15 | 0.13 | 77 | 1013.2 |
| 20260502012522 | 16 | 0 | 0.0 | 0.0 | 0.00 | 0.15 | 0.13 | 77 | 1013.1 |
| 20260502012021 | 16 | 0 | 0.0 | 0.0 | 0.00 | 0.15 | 0.13 | 77 | 1013.0 |
| 20260502011536 | 16 | 0 | 0.0 | 0.0 | 0.00 | 0.15 | 0.13 | 76 | 1012.8 |
| 20260502011018 | 16 | 0 | 0.0 | 0.0 | 0.00 | 0.15 | 0.13 | 76 | 1012.8 |
| 20260502010518 | 17 | 0 | 0.0 | 0.0 | 0.00 | 0.15 | 0.13 | 76 | 1012.9 |
| 20260502010035 | 17 | 0 | 0.0 | 0.0 | 0.00 | 0.15 | 0.13 | 76 | 1012.9 |
| 20260502005518 | 17 | 0 | 0.0 | 0.0 | 0.00 | 0.15 | 0.13 | 75 | 1012.9 |
| 20260502005019 | 17 | 0 | 0.0 | 0.0 | 0.00 | 0.15 | 0.13 | 74 | 1012.8 |
| 20260502004532 | 17 | 0 | 0.0 | 0.0 | 0.00 | 0.15 | 0.13 | 74 | 1012.8 |
| 20260502004021 | 17 | 0 | 0.0 | 0.0 | 0.00 | 0.15 | 0.13 | 74 | 1012.8 |
| 20260502003521 | 17 | 0 | 0.0 | 0.0 | 0.00 | 0.15 | 0.13 | 74 | 1012.6 |
| 20260502003037 | 17 | 0 | 0.0 | 0.0 | 0.00 | 0.15 | 0.13 | 73 | 1012.7 |
| 20260502002521 | 17 | 0 | 0.0 | 0.0 | 0.00 | 0.15 | 0.13 | 73 | 1012.6 |
| 20260502002018 | 17 | 0 | 0.0 | 0.0 | 0.00 | 0.15 | 0.13 | 72 | 1012.6 |
| 20260502001552 | 17 | 0 | 0.0 | 0.0 | 0.00 | 0.15 | 0.13 | 72 | 1012.4 |
| 20260502001021 | 18 | 0 | 0.0 | 0.0 | 0.00 | 0.15 | 0.13 | 72 | 1012.2 |
| 20260502000519 | 18 | 0 | 0.0 | 0.0 | 0.00 | 0.15 | 0.13 | 72 | 1012.3 |
| 20260502000037 | 18 | 0 | 0.0 | 0.0 | 0.00 | 0.15 | 0.13 | 71 | 1012.4 |
| 20260501235520 | 18 | 0 | 0.0 | 3.2 | 0.00 | 0.15 | 0.13 | 71 | 1012.4 |
| 20260501235018 | 18 | 0 | 0.0 | 4.8 | 0.00 | 0.15 | 0.13 | 71 | 1012.2 |
| 20260501234536 | 18 | 0 | 0.0 | 4.8 | 0.00 | 0.15 | 0.13 | 70 | 1012.1 |
| 20260501234019 | 18 | 0 | 0.0 | 4.8 | 0.00 | 0.15 | 0.13 | 70 | 1012.1 |
| 20260501233519 | 18 | 0 | 0.0 | 4.8 | 0.00 | 0.15 | 0.13 | 70 | 1012.2 |
| 20260501233042 | 18 | 0 | 0.0 | 3.2 | 0.00 | 0.15 | 0.13 | 69 | 1012.1 |
| 20260501232521 | 19 | 0 | 0.0 | 3.2 | 0.00 | 0.15 | 0.13 | 69 | 1011.9 |
| 20260501232021 | 19 | 0 | 0.0 | 0.0 | 0.00 | 0.15 | 0.13 | 69 | 1012.2 |
| 20260501231538 | 19 | 0 | 0.0 | 0.0 | 0.00 | 0.15 | 0.13 | 68 | 1012.2 |
| 20260501231021 | 19 | 0 | 0.0 | 0.0 | 0.00 | 0.15 | 0.13 | 67 | 1012.2 |
| 20260501230519 | 20 | 0 | 0.0 | 3.2 | 0.00 | 0.15 | 0.13 | 67 | 1012.3 |
| 20260501230038 | 20 | 0 | 0.0 | 3.2 | 0.00 | 0.15 | 0.13 | 66 | 1012.3 |
| 20260501225519 | 20 | 0 | 0.0 | 0.0 | 0.00 | 0.18 | 0.13 | 65 | 1012.2 |
| 20260501225019 | 20 | 0 | 0.0 | 1.6 | 0.00 | 0.18 | 0.13 | 65 | 1012.3 |
| 20260501224535 | 20 | 0 | 0.0 | 3.2 | 0.00 | 0.18 | 0.13 | 64 | 1012.5 |
| 20260501224017 | 20 | 0 | 0.0 | 4.8 | 0.00 | 0.18 | 0.13 | 64 | 1012.3 |
| 20260501223519 | 20 | 0 | 0.0 | 4.8 | 0.00 | 0.18 | 0.13 | 63 | 1012.5 |
| 20260501223036 | 20 | 86 | 0.0 | 4.8 | 0.00 | 0.18 | 0.13 | 63 | 1012.6 |
| 20260501222519 | 20 | 0 | 0.0 | 1.6 | 0.00 | 0.18 | 0.13 | 63 | 1012.7 |
| 20260501222021 | 20 | 0 | 0.0 | 4.8 | 0.00 | 0.18 | 0.13 | 62 | 1012.6 |
| 20260501221540 | 20 | 0 | 0.0 | 4.8 | 0.00 | 0.18 | 0.13 | 62 | 1012.6 |
| 20260501221018 | 20 | 117 | 0.0 | 1.6 | 0.00 | 0.18 | 0.13 | 62 | 1012.5 |
| 20260501220519 | 20 | 0 | 0.0 | 1.6 | 0.00 | 0.18 | 0.13 | 62 | 1012.6 |
| 20260501220104 | 20 | 0 | 0.0 | 1.6 | 0.00 | 0.18 | 0.13 | 62 | 1012.6 |
| 20260501215518 | 20 | 0 | 0.0 | 1.6 | 0.00 | 0.18 | 0.13 | 63 | 1012.7 |
| 20260501215018 | 20 | 0 | 0.0 | 1.6 | 0.00 | 0.18 | 0.13 | 62 | 1012.7 |
| 20260501214540 | 20 | 0 | 0.0 | 1.6 | 0.00 | 0.18 | 0.13 | 63 | 1012.7 |
| 20260501214021 | 20 | 0 | 0.0 | 3.2 | 0.00 | 0.18 | 0.13 | 62 | 1012.6 |
| 20260501213521 | 20 | 0 | 0.0 | 3.2 | 0.00 | 0.18 | 0.13 | 62 | 1012.6 |
| 20260501213036 | 20 | 0 | 0.0 | 3.2 | 0.00 | 0.18 | 0.13 | 62 | 1012.6 |
| 20260501212519 | 20 | 0 | 0.0 | 3.2 | 0.00 | 0.18 | 0.13 | 61 | 1012.7 |
| 20260501212019 | 20 | 0 | 0.0 | 3.2 | 0.00 | 0.18 | 0.13 | 61 | 1012.8 |
| 20260501211536 | 20 | 0 | 0.0 | 4.8 | 0.00 | 0.18 | 0.13 | 61 | 1012.8 |
| 20260501211024 | 20 | 0 | 0.0 | 4.8 | 0.00 | 0.18 | 0.13 | 61 | 1012.7 |
| 20260501210518 | 20 | 0 | 0.0 | 4.8 | 0.00 | 0.18 | 0.13 | 60 | 1012.7 |
| 20260501210047 | 20 | 0 | 0.0 | 4.8 | 0.00 | 0.18 | 0.13 | 60 | 1012.6 |
| 20260501205518 | 20 | 0 | 1.6 | 4.8 | 0.00 | 0.20 | 0.13 | 60 | 1012.7 |
| 20260501205022 | 20 | 0 | 0.0 | 6.4 | 0.00 | 0.20 | 0.13 | 61 | 1012.9 |
| 20260501204541 | 20 | 0 | 0.0 | 6.4 | 0.00 | 0.20 | 0.13 | 60 | 1012.7 |
| 20260501204021 | 20 | 108 | 0.0 | 6.4 | 0.00 | 0.20 | 0.13 | 60 | 1012.8 |
| 20260501203519 | 20 | 0 | 0.0 | 4.8 | 0.00 | 0.20 | 0.13 | 59 | 1012.9 |
| 20260501203040 | 20 | 82 | 0.0 | 3.2 | 0.00 | 0.20 | 0.13 | 60 | 1013.0 |
| 20260501202519 | 20 | 285 | 0.0 | 4.8 | 0.00 | 0.20 | 0.13 | 60 | 1013.0 |
| 20260501202021 | 20 | 0 | 0.0 | 4.8 | 0.00 | 0.20 | 0.13 | 59 | 1013.0 |
| 20260501201541 | 20 | 355 | 0.0 | 8.0 | 0.00 | 0.20 | 0.13 | 60 | 1013.1 |
| 20260501201021 | 20 | 234 | 1.6 | 11.3 | 0.00 | 0.20 | 0.13 | 60 | 1013.2 |
| 20260501200523 | 20 | 0 | 0.0 | 11.3 | 0.00 | 0.20 | 0.13 | 61 | 1013.3 |
| 20260501200036 | 20 | 102 | 0.0 | 3.2 | 0.00 | 0.20 | 0.13 | 61 | 1013.3 |
| 20260501195523 | 19 | 0 | 0.0 | 4.8 | 0.00 | 0.20 | 0.13 | 61 | 1013.3 |
| 20260501195023 | 19 | 0 | 0.0 | 4.8 | 0.00 | 0.20 | 0.13 | 62 | 1013.4 |
| 20260501194536 | 19 | 0 | 0.0 | 4.8 | 0.00 | 0.20 | 0.13 | 61 | 1013.4 |
| 20260501194023 | 19 | 0 | 0.0 | 4.8 | 0.00 | 0.20 | 0.13 | 62 | 1013.4 |
| 20260501193522 | 19 | 0 | 0.0 | 4.8 | 0.00 | 0.20 | 0.13 | 61 | 1013.5 |
| 20260501193046 | 19 | 90 | 0.0 | 3.2 | 0.00 | 0.20 | 0.13 | 60 | 1013.6 |
| 20260501192519 | 18 | 0 | 0.0 | 4.8 | 0.00 | 0.20 | 0.13 | 61 | 1013.7 |
| 20260501192021 | 18 | 0 | 0.0 | 4.8 | 0.00 | 0.20 | 0.13 | 62 | 1013.8 |
| 20260501191538 | 18 | 103 | 0.0 | 4.8 | 0.00 | 0.20 | 0.13 | 62 | 1014.0 |
| 20260501191021 | 18 | 0 | 0.0 | 4.8 | 0.00 | 0.20 | 0.13 | 62 | 1014.2 |